Погода в Отряде-Алабуге

Россия / Курганская область     54°26′46″N   65°05′00″E
В апреле 2022 года жителям России запретили посещать сайт meteo.paraplan.net по решению Генеральной прокуратуры. Аудитория сайта уменьшилась в 10 раз. Владельцы сайта не видят смысла в поддержке погодного сервера в таких условиях. Сайт будет закрыт в октябре.
темп.,
°C
ветер,
м/с
пор.,
м/с
влажн.,
%
обл.,
%
осадки,
мм/ч
давл.,
гПа
погр.,
м
3 октября, пн
пн323:00+5ю493372 0.0 1032242
02:00+2ю473921 0.0 1032141
05:00+1ююв47415 0.0 1032115
08:00+2ю374060 0.0 1032175
11:00+8ю45276 0.0 1032579
14:00+11ю44235 0.0 1031907
17:00+11ю35255 0.0 1030349
20:00+7ю453043 0.0 103265
4 октября, вт
вт423:00+5ю473348 0.0 1032104
02:00+4ююз363613 0.0 1032105
05:00+4ююз363835 0.0 103396
08:00+4ююз373897 0.0 1034154
11:00+8юз4629100 0.0 1034299
14:00+12юз452585 0.0 1034546
17:00+13юз342998 0.0 1034112
20:00+10юз333326 0.0 103544
5 октября, ср
ср523:00+8юз34345 0.0 103559
02:00+7ююз34345 0.0 103559
05:00+6ююз35365 0.0 103668
08:00+6ююз373699 0.0 1036158
11:00+12юз5725100 0.0 1035470
14:00+15юз5720100 0.0 1034843
17:00+13юз4724100 0.0 1033220
20:00+9ююз4630100 0.0 103385
6 октября, чт
чт623:00+8ююз3433100 0.0 103261
02:00+7ююз3634100 0.0 103196
05:00+8ююз3531100 0.0 102992
08:00+8ю4829100 0.0 1028185
11:00+12ююз5822100 0.0 1027387
14:00+15ююз6817100 0.0 1025755
17:00+14ююз4719100 0.0 1024216
20:00+12ю51122100 0.0 1022248
7 октября, пт
пт723:00+12ю51122100 0.0 1021253
02:00+12ю61221100 0.0 1019298
05:00+12ю61245100 0.0 1017289
08:00+11ююз71337100 0.0 1015392
11:00+13ююз81243100 0.0 1014891
14:00+10ююз61179100 1.4 1013803
17:00+12з585797 1.6 1011828
20:00+9з496676 0.1 1013662